Weather in Lopatino

Russia / Samara Oblast     53°44′40″N   49°22′31″E
temp.,
°C
wind,
m/s
gust,
m/s
humid.,
%
clouds,
%
prec.,
mm/h
press.,
hPa
HPBL,
m
7 march, sun
sun701:00−15sw11752 0.0 101320
04:00−15sw128431 0.0 101320
07:00−14wsw229684 0.0 101220
10:00−11sw239684 0.1 1012120
13:00−8sw359298 0.0 1012365
16:00−6ssw478889 0.1 1010446
19:00−8ssw6138991 0.0 1008395
22:00−7ssw8159495 0.4 1006707
8 march, mon
mon801:00−5ssw91693100 0.9 1001908
04:00−4ssw101791100 1.6 9981039
07:00−4sw101790100 0.4 9961012
10:00−5wsw7137993 0.6 999793
13:00−3wsw813740 0.0 10021424
16:00−3sw5107924 0.1 1003778
19:00−7ssw478767 0.1 1003107
22:00−8s479139 0.1 100495
9 march, tue
tue901:00−6sw6119574 0.1 1003407
04:00−10wsw499385 0.1 1003197
07:00−13wsw489333 0.0 1006148
10:00−11w259319 0.0 1008202
13:00−9nw248851 0.0 1009316
16:00−9nnw249349 0.0 1010290
19:00−14nnw349494 0.0 101036
22:00−14nw339795 0.1 101255
10 march, wed
wed1001:00−17nw3497100 0.1 101255
04:00−16nw3697100 0.1 1013154
07:00−18nw589796 0.1 1014233
10:00−19nw589697 0.1 1016302
13:00−17nw5793100 0.0 1017408
16:00−18nw6992100 0.1 1018457
19:00−22nw4109594 0.0 1020213
22:00−25nw369863 0.0 102298
11 march, thu
thu1101:00−27nw349963 0.0 102365
04:00−28nw3310050 0.0 102431
07:00−28w239966 0.0 102522
10:00−23wsw349344 0.0 1025146
13:00−17wsw579133 0.0 1025397
16:00−12w599066 0.1 1024680
19:00−13wnw3989100 0.0 1025282
22:00−14wnw389296 0.1 1026216